Time,TemperatureF,DewpointF,PressureIn,WindDirection,WindDirectionDegrees,WindSpeedMPH,WindSpeedGustMPH,Humidity,HourlyPrecipIn,Conditions,Clouds,dailyrainin,SoftwareType,DateUTC
2013-05-15 00:02:00,46.4,32.0,25.60,North,0,0.0,0.0,57,0.00,,---,0.00,VWS V13.01,2013-05-15 06:02:00,
2013-05-15 00:07:00,46.2,31.4,25.60,North,0,0.0,0.0,56,0.00,,---,0.00,VWS V13.01,2013-05-15 06:07:00,
2013-05-15 00:12:00,46.0,30.8,25.60,North,0,0.0,0.0,55,0.00,,---,0.00,VWS V13.01,2013-05-15 06:12:00,
2013-05-15 00:17:00,46.0,30.8,25.60,North,0,0.0,0.0,55,0.00,,---,0.00,VWS V13.01,2013-05-15 06:17:00,
2013-05-15 00:22:00,45.9,31.1,25.60,North,0,0.0,0.0,56,0.00,,---,0.00,VWS V13.01,2013-05-15 06:22:00,
2013-05-15 00:27:00,45.7,31.3,25.60,North,0,0.0,0.0,57,0.00,,---,0.00,VWS V13.01,2013-05-15 06:27:00,
2013-05-15 00:32:00,45.5,31.6,25.60,North,0,0.0,0.0,58,0.00,,---,0.00,VWS V13.01,2013-05-15 06:32:00,
2013-05-15 00:37:00,45.1,31.3,25.60,North,0,0.0,0.0,58,0.00,,---,0.00,VWS V13.01,2013-05-15 06:37:00,
2013-05-15 00:42:00,45.0,31.9,25.60,North,0,0.0,0.0,60,0.00,,---,0.00,VWS V13.01,2013-05-15 06:42:00,
2013-05-15 00:47:00,45.0,31.9,25.60,North,0,0.0,0.0,60,0.00,,---,0.00,VWS V13.01,2013-05-15 06:47:00,
2013-05-15 00:52:00,44.6,31.2,25.60,North,0,0.0,0.0,59,0.00,,---,0.00,VWS V13.01,2013-05-15 06:52:00,
2013-05-15 00:57:00,44.6,31.2,25.63,North,0,0.0,0.0,59,0.00,,---,0.00,VWS V13.01,2013-05-15 06:57:00,
2013-05-15 01:02:00,44.4,31.4,25.63,North,0,0.0,0.0,60,0.00,,---,0.00,VWS V13.01,2013-05-15 07:02:00,
2013-05-15 01:07:00,44.2,30.8,25.63,North,0,0.0,0.0,59,0.00,,---,0.00,VWS V13.01,2013-05-15 07:07:00,
2013-05-15 01:12:00,44.1,31.1,25.63,North,0,0.0,0.0,60,0.00,,---,0.00,VWS V13.01,2013-05-15 07:12:00,
2013-05-15 01:17:00,44.1,31.1,25.63,North,0,0.0,0.0,60,0.00,,---,0.00,VWS V13.01,2013-05-15 07:17:00,
2013-05-15 01:22:00,44.1,31.1,25.63,North,0,0.0,0.0,60,0.00,,---,0.00,VWS V13.01,2013-05-15 07:22:00,
2013-05-15 01:27:00,44.1,31.1,25.63,North,0,0.0,0.0,60,0.00,,---,0.00,VWS V13.01,2013-05-15 07:27:00,
2013-05-15 01:32:00,44.1,31.1,25.63,North,0,0.0,0.0,60,0.00,,---,0.00,VWS V13.01,2013-05-15 07:32:00,
2013-05-15 01:37:00,44.1,30.7,25.63,North,0,0.0,0.0,59,0.00,,---,0.00,VWS V13.01,2013-05-15 07:37:00,
2013-05-15 01:42:00,43.9,30.5,25.66,North,0,0.0,0.0,59,0.00,,---,0.00,VWS V13.01,2013-05-15 07:42:00,
2013-05-15 01:47:00,43.5,30.2,25.66,North,0,0.0,0.0,59,0.00,,---,0.00,VWS V13.01,2013-05-15 07:47:00,
2013-05-15 01:52:00,43.5,30.6,25.66,North,0,0.0,0.0,60,0.00,,---,0.00,VWS V13.01,2013-05-15 07:52:00,
2013-05-15 01:57:00,43.3,30.4,25.66,North,0,0.0,0.0,60,0.00,,---,0.00,VWS V13.01,2013-05-15 07:57:00,
2013-05-15 02:02:00,43.5,30.6,25.66,North,0,0.0,0.0,60,0.00,,---,0.00,VWS V13.01,2013-05-15 08:02:00,
2013-05-15 02:07:00,43.3,30.0,25.66,North,0,0.0,0.0,59,0.00,,---,0.00,VWS V13.01,2013-05-15 08:07:00,
2013-05-15 02:12:00,43.3,30.0,25.63,North,0,0.0,0.0,59,0.00,,---,0.00,VWS V13.01,2013-05-15 08:12:00,
2013-05-15 02:17:00,43.2,29.8,25.63,North,0,0.0,0.0,59,0.00,,---,0.00,VWS V13.01,2013-05-15 08:17:00,
2013-05-15 02:22:00,42.8,29.9,25.63,North,0,0.0,0.0,60,0.00,,---,0.00,VWS V13.01,2013-05-15 08:22:00,
2013-05-15 02:27:00,42.8,30.3,25.63,North,0,0.0,0.0,61,0.00,,---,0.00,VWS V13.01,2013-05-15 08:27:00,
2013-05-15 02:32:00,42.8,29.9,25.63,North,0,0.0,0.0,60,0.00,,---,0.00,VWS V13.01,2013-05-15 08:32:00,
2013-05-15 02:37:00,42.6,30.1,25.63,North,0,0.0,0.0,61,0.00,,---,0.00,VWS V13.01,2013-05-15 08:37:00,
2013-05-15 02:42:00,42.4,30.0,25.63,North,0,0.0,0.0,61,0.00,,---,0.00,VWS V13.01,2013-05-15 08:42:00,
2013-05-15 02:47:00,42.3,30.2,25.63,North,0,0.0,0.0,62,0.00,,---,0.00,VWS V13.01,2013-05-15 08:47:00,
2013-05-15 02:52:00,42.3,30.6,25.63,North,0,0.0,0.0,63,0.00,,---,0.00,VWS V13.01,2013-05-15 08:52:00,
2013-05-15 02:57:00,42.3,30.6,25.63,North,0,0.0,0.0,63,0.00,,---,0.00,VWS V13.01,2013-05-15 08:57:00,
2013-05-15 03:02:00,42.4,30.4,25.63,North,0,0.0,0.0,62,0.00,,---,0.00,VWS V13.01,2013-05-15 09:02:00,
2013-05-15 03:07:00,42.4,30.0,25.63,North,0,0.0,0.0,61,0.00,,---,0.00,VWS V13.01,2013-05-15 09:07:00,
2013-05-15 03:12:00,42.3,29.8,25.66,North,0,0.0,0.0,61,0.00,,---,0.00,VWS V13.01,2013-05-15 09:12:00,
2013-05-15 03:17:00,42.3,30.2,25.66,North,0,0.0,0.0,62,0.00,,---,0.00,VWS V13.01,2013-05-15 09:17:00,
2013-05-15 03:22:00,42.1,30.0,25.66,North,0,0.0,0.0,62,0.00,,---,0.00,VWS V13.01,2013-05-15 09:22:00,
2013-05-15 03:27:00,42.1,30.0,25.66,North,0,0.0,0.0,62,0.00,,---,0.00,VWS V13.01,2013-05-15 09:27:00,
2013-05-15 03:32:00,41.9,29.9,25.66,North,0,0.0,0.0,62,0.00,,---,0.00,VWS V13.01,2013-05-15 09:32:00,
2013-05-15 03:37:00,41.9,29.9,25.66,North,0,0.0,0.0,62,0.00,,---,0.00,VWS V13.01,2013-05-15 09:37:00,
2013-05-15 03:42:00,42.1,30.0,25.63,North,0,0.0,0.0,62,0.00,,---,0.00,VWS V13.01,2013-05-15 09:42:00,
2013-05-15 03:47:00,42.1,30.0,25.63,North,0,0.0,0.0,62,0.00,,---,0.00,VWS V13.01,2013-05-15 09:47:00,
2013-05-15 03:52:00,41.9,29.9,25.63,North,0,0.0,0.0,62,0.00,,---,0.00,VWS V13.01,2013-05-15 09:52:00,
2013-05-15 03:57:00,41.9,29.9,25.63,North,0,0.0,0.0,62,0.00,,---,0.00,VWS V13.01,2013-05-15 09:57:00,
2013-05-15 04:02:00,41.7,29.7,25.63,North,0,0.0,0.0,62,0.00,,---,0.00,VWS V13.01,2013-05-15 10:02:00,
2013-05-15 04:07:00,41.9,29.5,25.63,North,0,0.0,0.0,61,0.00,,---,0.00,VWS V13.01,2013-05-15 10:07:00,
2013-05-15 04:12:00,41.7,29.3,25.63,North,0,0.0,0.0,61,0.00,,---,0.00,VWS V13.01,2013-05-15 10:12:00,
2013-05-15 04:17:00,41.4,28.9,25.63,North,0,0.0,0.0,61,0.00,,---,0.00,VWS V13.01,2013-05-15 10:17:00,
2013-05-15 04:22:00,41.0,29.0,25.63,North,0,0.0,0.0,62,0.00,,---,0.00,VWS V13.01,2013-05-15 10:22:00,
2013-05-15 04:27:00,40.8,29.6,25.63,North,0,0.0,0.0,64,0.00,,---,0.00,VWS V13.01,2013-05-15 10:27:00,
2013-05-15 04:32:00,40.5,29.3,25.63,North,0,0.0,0.0,64,0.00,,---,0.00,VWS V13.01,2013-05-15 10:32:00,
2013-05-15 04:37:00,40.3,29.8,25.63,North,0,0.0,0.0,66,0.00,,---,0.00,VWS V13.01,2013-05-15 10:37:00,
2013-05-15 04:42:00,40.1,29.7,25.63,North,0,0.0,0.0,66,0.00,,---,0.00,VWS V13.01,2013-05-15 10:42:00,
2013-05-15 04:47:00,39.9,29.9,25.63,North,0,0.0,0.0,67,0.00,,---,0.00,VWS V13.01,2013-05-15 10:47:00,
2013-05-15 04:52:00,39.7,30.1,25.63,North,0,0.0,0.0,68,0.00,,---,0.00,VWS V13.01,2013-05-15 10:52:00,
2013-05-15 04:57:00,39.7,30.1,25.66,North,0,0.0,0.0,68,0.00,,---,0.00,VWS V13.01,2013-05-15 10:57:00,
2013-05-15 05:02:00,39.6,30.2,25.66,North,0,0.0,0.0,69,0.00,,---,0.00,VWS V13.01,2013-05-15 11:02:00,
2013-05-15 05:07:00,39.2,29.9,25.66,North,0,0.0,0.0,69,0.00,,---,0.00,VWS V13.01,2013-05-15 11:07:00,
2013-05-15 05:13:00,39.2,30.2,25.66,North,0,0.0,0.0,70,0.00,,---,0.00,VWS V13.01,2013-05-15 11:13:00,
2013-05-15 05:18:00,39.2,30.6,25.66,North,0,0.0,0.0,71,0.00,,---,0.00,VWS V13.01,2013-05-15 11:18:00,
2013-05-15 05:23:00,38.8,30.3,25.66,North,0,0.0,0.0,71,0.00,,---,0.00,VWS V13.01,2013-05-15 11:23:00,
2013-05-15 05:28:00,38.7,30.1,25.63,North,0,0.0,0.0,71,0.00,,---,0.00,VWS V13.01,2013-05-15 11:28:00,
2013-05-15 05:34:00,38.8,30.6,25.63,North,0,0.0,0.0,72,0.00,,---,0.00,VWS V13.01,2013-05-15 11:34:00,
2013-05-15 05:39:00,38.8,30.6,25.66,North,0,0.0,0.0,72,0.00,,---,0.00,VWS V13.01,2013-05-15 11:39:00,
2013-05-15 05:44:00,38.8,30.6,25.66,North,0,0.0,0.0,72,0.00,,---,0.00,VWS V13.01,2013-05-15 11:44:00,
2013-05-15 05:49:00,38.8,30.6,25.66,North,0,0.0,0.0,72,0.00,,---,0.00,VWS V13.01,2013-05-15 11:49:00,
2013-05-15 05:55:00,39.2,31.0,25.66,North,0,0.0,0.0,72,0.00,,---,0.00,VWS V13.01,2013-05-15 11:55:00,
2013-05-15 06:00:00,39.2,31.0,25.66,North,0,0.0,0.0,72,0.00,,---,0.00,VWS V13.01,2013-05-15 12:00:00,
2013-05-15 06:05:00,39.4,31.1,25.66,North,0,0.0,0.0,72,0.00,,---,0.00,VWS V13.01,2013-05-15 12:05:00,
2013-05-15 06:10:00,39.7,31.1,25.66,North,0,0.0,0.0,71,0.00,,---,0.00,VWS V13.01,2013-05-15 12:10:00,
2013-05-15 06:16:00,40.3,31.3,25.66,North,0,0.0,0.0,70,0.00,,---,0.00,VWS V13.01,2013-05-15 12:16:00,
2013-05-15 06:21:00,40.5,31.1,25.66,North,0,0.0,0.0,69,0.00,,---,0.00,VWS V13.01,2013-05-15 12:21:00,
2013-05-15 06:26:00,40.6,30.9,25.66,North,0,0.0,0.0,68,0.00,,---,0.00,VWS V13.01,2013-05-15 12:26:00,
2013-05-15 06:31:00,42.4,33.4,25.66,North,0,0.0,0.0,70,0.00,,---,0.00,VWS V13.01,2013-05-15 12:31:00,
2013-05-15 06:37:00,46.4,32.0,25.66,North,0,0.0,0.0,57,0.00,,---,0.00,VWS V13.01,2013-05-15 12:37:00,
2013-05-15 06:42:00,49.3,31.0,25.66,North,0,0.0,0.0,49,0.00,,---,0.00,VWS V13.01,2013-05-15 12:42:00,
2013-05-15 06:47:00,52.0,31.9,25.66,North,0,0.0,0.0,46,0.00,,---,0.00,VWS V13.01,2013-05-15 12:47:00,
2013-05-15 06:52:00,54.1,30.4,25.66,North,0,0.0,0.0,40,0.00,,---,0.00,VWS V13.01,2013-05-15 12:52:00,
2013-05-15 06:58:00,55.9,30.7,25.66,North,0,0.0,0.0,38,0.00,,---,0.00,VWS V13.01,2013-05-15 12:58:00,
2013-05-15 07:03:00,57.6,30.8,25.66,North,0,0.0,0.0,36,0.00,,---,0.00,VWS V13.01,2013-05-15 13:03:00,
2013-05-15 07:09:00,59.4,31.7,25.66,North,0,0.0,0.0,35,0.00,,---,0.00,VWS V13.01,2013-05-15 13:09:00,
2013-05-15 07:14:00,60.8,32.3,25.66,North,0,0.0,0.0,34,0.00,,---,0.00,VWS V13.01,2013-05-15 13:14:00,
2013-05-15 07:19:00,62.1,33.4,25.66,North,0,0.0,0.0,34,0.00,,---,0.00,VWS V13.01,2013-05-15 13:19:00,
2013-05-15 07:24:00,63.5,33.9,25.69,North,0,0.0,0.0,33,0.00,,---,0.00,VWS V13.01,2013-05-15 13:24:00,
2013-05-15 07:29:00,64.9,33.6,25.69,North,0,0.0,0.0,31,0.00,,---,0.00,VWS V13.01,2013-05-15 13:29:00,
2013-05-15 07:34:00,65.5,33.3,25.69,North,0,0.0,0.0,30,0.00,,---,0.00,VWS V13.01,2013-05-15 13:34:00,
2013-05-15 07:39:00,66.4,34.0,25.69,North,0,0.0,0.0,30,0.00,,---,0.00,VWS V13.01,2013-05-15 13:39:00,
2013-05-15 07:44:00,65.5,34.1,25.69,North,0,0.0,0.0,31,0.00,,---,0.00,VWS V13.01,2013-05-15 13:44:00,
2013-05-15 07:49:00,63.9,33.5,25.69,North,0,0.0,0.0,32,0.00,,---,0.00,VWS V13.01,2013-05-15 13:49:00,
2013-05-15 07:55:00,60.6,32.8,25.69,North,0,0.0,0.0,35,0.00,,---,0.00,VWS V13.01,2013-05-15 13:55:00,
2013-05-15 08:00:00,60.3,33.2,25.69,North,0,0.0,0.0,36,0.00,,---,0.00,VWS V13.01,2013-05-15 14:00:00,
2013-05-15 08:05:00,59.9,32.9,25.69,North,0,0.0,0.0,36,0.00,,---,0.00,VWS V13.01,2013-05-15 14:05:00,
2013-05-15 08:10:00,60.1,33.1,25.69,North,0,0.0,0.0,36,0.00,,---,0.00,VWS V13.01,2013-05-15 14:10:00,
2013-05-15 08:15:00,60.1,33.1,25.69,North,0,0.0,0.0,36,0.00,,---,0.00,VWS V13.01,2013-05-15 14:15:00,
2013-05-15 08:20:00,61.0,33.9,25.69,North,0,0.0,0.0,36,0.00,,---,0.00,VWS V13.01,2013-05-15 14:20:00,
2013-05-15 08:25:00,61.5,33.6,25.69,North,0,0.0,0.0,35,0.00,,---,0.00,VWS V13.01,2013-05-15 14:25:00,
2013-05-15 08:30:00,65.3,35.5,25.69,North,0,0.0,0.0,33,0.00,,---,0.00,VWS V13.01,2013-05-15 14:30:00,
2013-05-15 08:36:00,67.8,35.3,25.69,North,0,0.0,0.0,30,0.00,,---,0.00,VWS V13.01,2013-05-15 14:36:00,
2013-05-15 08:41:00,68.9,34.5,25.69,North,0,0.0,0.0,28,0.00,,---,0.00,VWS V13.01,2013-05-15 14:41:00,
2013-05-15 08:46:00,69.4,35.0,25.69,North,0,0.0,0.0,28,0.00,,---,0.00,VWS V13.01,2013-05-15 14:46:00,
2013-05-15 08:52:00,70.3,34.8,25.69,North,0,0.0,0.0,27,0.00,,---,0.00,VWS V13.01,2013-05-15 14:52:00,
2013-05-15 08:57:00,70.0,33.5,25.69,North,0,0.0,0.0,26,0.00,,---,0.00,VWS V13.01,2013-05-15 14:57:00,
2013-05-15 09:02:00,72.1,34.4,25.69,North,0,0.0,0.0,25,0.00,,---,0.00,VWS V13.01,2013-05-15 15:02:00,
2013-05-15 09:07:00,72.7,34.9,25.69,North,0,0.0,0.0,25,0.00,,---,0.00,VWS V13.01,2013-05-15 15:07:00,
2013-05-15 09:12:00,72.5,33.7,25.69,North,0,0.0,0.0,24,0.00,,---,0.00,VWS V13.01,2013-05-15 15:12:00,
2013-05-15 09:17:00,73.4,34.5,25.69,North,0,0.0,0.0,24,0.00,,---,0.00,VWS V13.01,2013-05-15 15:17:00,
2013-05-15 09:22:00,73.9,34.9,25.69,North,0,0.0,0.0,24,0.00,,---,0.00,VWS V13.01,2013-05-15 15:22:00,
2013-05-15 09:27:00,75.0,34.7,25.69,North,0,0.0,0.0,23,0.00,,---,0.00,VWS V13.01,2013-05-15 15:27:00,
2013-05-15 09:32:00,77.0,35.3,25.69,North,0,0.0,0.0,22,0.00,,---,0.00,VWS V13.01,2013-05-15 15:32:00,
2013-05-15 09:38:00,75.2,33.8,25.69,North,0,0.0,0.0,22,0.00,,---,0.00,VWS V13.01,2013-05-15 15:38:00,
2013-05-15 09:43:00,75.7,34.2,25.69,North,0,0.0,0.0,22,0.00,,---,0.00,VWS V13.01,2013-05-15 15:43:00,
2013-05-15 09:48:00,75.7,34.2,25.69,North,0,0.0,0.0,22,0.00,,---,0.00,VWS V13.01,2013-05-15 15:48:00,
2013-05-15 09:53:00,76.8,35.1,25.69,North,0,0.0,0.0,22,0.00,,---,0.00,VWS V13.01,2013-05-15 15:53:00,
2013-05-15 09:58:00,77.0,35.3,25.69,North,0,0.0,0.0,22,0.00,,---,0.00,VWS V13.01,2013-05-15 15:58:00,
2013-05-15 10:04:00,77.5,34.6,25.69,North,0,0.0,0.0,21,0.00,,---,0.00,VWS V13.01,2013-05-15 16:04:00,
2013-05-15 10:09:00,77.5,34.6,25.69,North,0,0.0,0.0,21,0.00,,---,0.00,VWS V13.01,2013-05-15 16:09:00,
2013-05-15 10:14:00,76.3,34.7,25.69,North,0,0.0,0.0,22,0.00,,---,0.00,VWS V13.01,2013-05-15 16:14:00,
2013-05-15 10:19:00,76.6,35.0,25.69,North,0,0.0,0.0,22,0.00,,---,0.00,VWS V13.01,2013-05-15 16:19:00,
2013-05-15 10:24:00,77.9,34.9,25.69,North,0,0.0,0.0,21,0.00,,---,0.00,VWS V13.01,2013-05-15 16:24:00,
2013-05-15 10:30:00,76.8,35.1,25.69,North,0,0.0,0.0,22,0.00,,---,0.00,VWS V13.01,2013-05-15 16:30:00,
2013-05-15 10:35:00,76.3,34.7,25.69,North,0,0.0,0.0,22,0.00,,---,0.00,VWS V13.01,2013-05-15 16:35:00,
2013-05-15 10:40:00,77.4,34.4,25.69,North,0,0.0,0.0,21,0.00,,---,0.00,VWS V13.01,2013-05-15 16:40:00,
2013-05-15 10:45:00,75.9,34.4,25.69,North,0,0.0,0.0,22,0.00,,---,0.00,VWS V13.01,2013-05-15 16:45:00,
2013-05-15 10:50:00,75.9,34.4,25.69,North,0,0.0,0.0,22,0.00,,---,0.00,VWS V13.01,2013-05-15 16:50:00,
2013-05-15 10:55:00,78.8,35.6,25.69,North,0,0.0,0.0,21,0.00,,---,0.00,VWS V13.01,2013-05-15 16:55:00,
2013-05-15 11:01:00,78.3,35.2,25.69,North,0,0.0,0.0,21,0.00,,---,0.00,VWS V13.01,2013-05-15 17:01:00,
2013-05-15 11:06:00,76.8,35.1,25.69,North,0,0.0,0.0,22,0.00,,---,0.00,VWS V13.01,2013-05-15 17:06:00,
2013-05-15 11:11:00,79.0,35.8,25.69,North,0,0.0,0.0,21,0.00,,---,0.00,VWS V13.01,2013-05-15 17:11:00,
2013-05-15 11:16:00,80.1,36.7,25.69,North,0,0.0,0.0,21,0.00,,---,0.00,VWS V13.01,2013-05-15 17:16:00,
2013-05-15 11:21:00,81.1,36.3,25.69,North,0,0.0,0.0,20,0.00,,---,0.00,VWS V13.01,2013-05-15 17:21:00,
2013-05-15 11:26:00,80.8,36.0,25.66,North,0,0.0,0.0,20,0.00,,---,0.00,VWS V13.01,2013-05-15 17:26:00,
2013-05-15 11:32:00,81.0,36.2,25.66,North,0,0.0,0.0,20,0.00,,---,0.00,VWS V13.01,2013-05-15 17:32:00,
2013-05-15 11:37:00,80.8,36.0,25.66,North,0,0.0,0.0,20,0.00,,---,0.00,VWS V13.01,2013-05-15 17:37:00,
2013-05-15 11:42:00,81.5,36.6,25.66,North,0,0.0,0.0,20,0.00,,---,0.00,VWS V13.01,2013-05-15 17:42:00,
2013-05-15 11:47:00,82.9,36.5,25.66,North,0,0.0,0.0,19,0.00,,---,0.00,VWS V13.01,2013-05-15 17:47:00,
2013-05-15 11:52:00,80.1,36.7,25.66,North,0,0.0,0.0,21,0.00,,---,0.00,VWS V13.01,2013-05-15 17:52:00,
2013-05-15 11:57:00,81.9,36.9,25.66,North,0,0.0,0.0,20,0.00,,---,0.00,VWS V13.01,2013-05-15 17:57:00,
2013-05-15 12:02:00,81.5,36.6,25.66,North,0,0.0,0.0,20,0.00,,---,0.00,VWS V13.01,2013-05-15 18:02:00,
2013-05-15 12:07:00,81.0,36.2,25.66,North,0,0.0,0.0,20,0.00,,---,0.00,VWS V13.01,2013-05-15 18:07:00,
2013-05-15 12:13:00,81.5,36.6,25.66,North,0,0.0,0.0,20,0.00,,---,0.00,VWS V13.01,2013-05-15 18:13:00,
2013-05-15 12:18:00,82.0,37.0,25.66,North,0,0.0,0.0,20,0.00,,---,0.00,VWS V13.01,2013-05-15 18:18:00,
2013-05-15 12:23:00,81.7,36.8,25.66,North,0,0.0,0.0,20,0.00,,---,0.00,VWS V13.01,2013-05-15 18:23:00,
2013-05-15 12:28:00,82.0,37.0,25.63,North,0,0.0,0.0,20,0.00,,---,0.00,VWS V13.01,2013-05-15 18:28:00,
2013-05-15 12:34:00,82.8,37.6,25.63,North,0,0.0,0.0,20,0.00,,---,0.00,VWS V13.01,2013-05-15 18:34:00,
2013-05-15 12:39:00,82.9,37.8,25.63,North,0,0.0,0.0,20,0.00,,---,0.00,VWS V13.01,2013-05-15 18:39:00,
2013-05-15 12:44:00,84.9,38.1,25.63,North,0,0.0,0.0,19,0.00,,---,0.00,VWS V13.01,2013-05-15 18:44:00,
2013-05-15 12:49:00,82.9,37.8,25.63,North,0,0.0,0.0,20,0.00,,---,0.00,VWS V13.01,2013-05-15 18:49:00,
2013-05-15 12:54:00,80.2,36.8,25.63,North,0,0.0,0.0,21,0.00,,---,0.00,VWS V13.01,2013-05-15 18:54:00,
2013-05-15 12:59:00,80.1,36.7,25.63,North,0,0.0,0.0,21,0.00,,---,0.00,VWS V13.01,2013-05-15 18:59:00,
2013-05-15 13:04:00,83.7,38.4,25.63,North,0,0.0,0.0,20,0.00,,---,0.00,VWS V13.01,2013-05-15 19:04:00,
2013-05-15 13:09:00,86.0,39.0,25.63,North,0,0.0,0.0,19,0.00,,---,0.00,VWS V13.01,2013-05-15 19:09:00,
2013-05-15 13:15:00,86.5,39.4,25.63,North,0,0.0,0.0,19,0.00,,---,0.00,VWS V13.01,2013-05-15 19:15:00,
2013-05-15 13:20:00,83.3,36.8,25.63,North,0,0.0,0.0,19,0.00,,---,0.00,VWS V13.01,2013-05-15 19:20:00,
2013-05-15 13:26:00,84.9,38.1,25.63,North,0,0.0,0.0,19,0.00,,---,0.00,VWS V13.01,2013-05-15 19:26:00,
2013-05-15 13:31:00,84.7,38.0,25.63,North,0,0.0,0.0,19,0.00,,---,0.00,VWS V13.01,2013-05-15 19:31:00,
2013-05-15 13:36:00,85.6,38.7,25.63,North,0,0.0,0.0,19,0.00,,---,0.00,VWS V13.01,2013-05-15 19:36:00,
2013-05-15 13:41:00,85.6,38.7,25.63,North,0,0.0,0.0,19,0.00,,---,0.00,VWS V13.01,2013-05-15 19:41:00,
2013-05-15 13:47:00,85.5,38.5,25.63,North,0,0.0,0.0,19,0.00,,---,0.00,VWS V13.01,2013-05-15 19:47:00,
2013-05-15 13:53:00,87.4,40.2,25.63,North,0,0.0,0.0,19,0.00,,---,0.00,VWS V13.01,2013-05-15 19:53:00,
2013-05-15 13:59:00,86.4,39.3,25.60,North,0,0.0,0.0,19,0.00,,---,0.00,VWS V13.01,2013-05-15 19:59:00,
2013-05-15 14:04:00,87.3,40.0,25.60,North,0,0.0,0.0,19,0.00,,---,0.00,VWS V13.01,2013-05-15 20:04:00,
2013-05-15 14:09:00,86.2,39.1,25.60,North,0,0.0,0.0,19,0.00,,---,0.00,VWS V13.01,2013-05-15 20:09:00,
2013-05-15 14:14:00,84.9,38.1,25.60,North,0,0.0,0.0,19,0.00,,---,0.00,VWS V13.01,2013-05-15 20:14:00,
2013-05-15 14:19:00,84.7,38.0,25.60,North,0,0.0,0.0,19,0.00,,---,0.00,VWS V13.01,2013-05-15 20:19:00,
2013-05-15 14:24:00,84.6,37.8,25.60,North,0,0.0,0.0,19,0.00,,---,0.00,VWS V13.01,2013-05-15 20:24:00,
2013-05-15 14:29:00,84.9,38.1,25.60,North,0,0.0,0.0,19,0.00,,---,0.00,VWS V13.01,2013-05-15 20:29:00,
2013-05-15 14:34:00,85.3,38.4,25.60,North,0,0.0,0.0,19,0.00,,---,0.00,VWS V13.01,2013-05-15 20:34:00,
2013-05-15 14:40:00,85.3,38.4,25.60,North,0,0.0,0.0,19,0.00,,---,0.00,VWS V13.01,2013-05-15 20:40:00,
2013-05-15 14:45:00,85.5,38.5,25.60,North,0,0.0,0.0,19,0.00,,---,0.00,VWS V13.01,2013-05-15 20:45:00,
2013-05-15 14:50:00,85.6,38.7,25.60,North,0,0.0,0.0,19,0.00,,---,0.00,VWS V13.01,2013-05-15 20:50:00,
2013-05-15 14:55:00,84.6,37.8,25.60,North,0,0.0,0.0,19,0.00,,---,0.00,VWS V13.01,2013-05-15 20:55:00,
2013-05-15 15:00:00,84.6,37.8,25.60,North,0,0.0,0.0,19,0.00,,---,0.00,VWS V13.01,2013-05-15 21:00:00,
2013-05-15 15:05:00,84.2,37.5,25.60,North,0,0.0,0.0,19,0.00,,---,0.00,VWS V13.01,2013-05-15 21:05:00,
2013-05-15 15:11:00,84.4,37.7,25.57,North,0,0.0,0.0,19,0.00,,---,0.00,VWS V13.01,2013-05-15 21:11:00,
2013-05-15 15:16:00,84.9,38.1,25.57,North,0,0.0,0.0,19,0.00,,---,0.00,VWS V13.01,2013-05-15 21:16:00,
2013-05-15 15:21:00,85.8,38.8,25.57,North,0,0.0,0.0,19,0.00,,---,0.00,VWS V13.01,2013-05-15 21:21:00,
2013-05-15 15:26:00,85.6,38.7,25.57,North,0,0.0,0.0,19,0.00,,---,0.00,VWS V13.01,2013-05-15 21:26:00,
2013-05-15 15:31:00,86.4,39.3,25.57,North,0,0.0,0.0,19,0.00,,---,0.00,VWS V13.01,2013-05-15 21:31:00,
2013-05-15 15:36:00,85.8,38.8,25.57,North,0,0.0,0.0,19,0.00,,---,0.00,VWS V13.01,2013-05-15 21:36:00,
2013-05-15 15:42:00,85.5,38.5,25.57,North,0,0.0,0.0,19,0.00,,---,0.00,VWS V13.01,2013-05-15 21:42:00,
2013-05-15 15:47:00,84.7,38.0,25.57,North,0,0.0,0.0,19,0.00,,---,0.00,VWS V13.01,2013-05-15 21:47:00,
2013-05-15 15:52:00,84.6,37.8,25.57,North,0,0.0,0.0,19,0.00,,---,0.00,VWS V13.01,2013-05-15 21:52:00,
2013-05-15 15:57:00,85.1,38.2,25.57,North,0,0.0,0.0,19,0.00,,---,0.00,VWS V13.01,2013-05-15 21:57:00,
2013-05-15 16:03:00,83.5,36.9,25.57,North,0,0.0,0.0,19,0.00,,---,0.00,VWS V13.01,2013-05-15 22:03:00,
2013-05-15 16:08:00,82.6,37.5,25.57,North,0,0.0,0.0,20,0.00,,---,0.00,VWS V13.01,2013-05-15 22:08:00,
2013-05-15 16:13:00,78.8,35.6,25.57,North,0,0.0,0.0,21,0.00,,---,0.00,VWS V13.01,2013-05-15 22:13:00,
2013-05-15 16:19:00,78.8,35.6,25.57,North,0,0.0,0.0,21,0.00,,---,0.00,VWS V13.01,2013-05-15 22:19:00,
2013-05-15 16:24:00,80.8,36.0,25.57,North,0,0.0,0.0,20,0.00,,---,0.00,VWS V13.01,2013-05-15 22:24:00,
2013-05-15 16:29:00,77.2,34.3,25.57,North,0,0.0,0.0,21,0.00,,---,0.00,VWS V13.01,2013-05-15 22:29:00,
2013-05-15 16:35:00,74.5,33.2,25.57,North,0,0.0,0.0,22,0.00,,---,0.00,VWS V13.01,2013-05-15 22:35:00,
2013-05-15 16:40:00,73.8,32.6,25.57,North,0,0.0,0.0,22,0.00,,---,0.00,VWS V13.01,2013-05-15 22:40:00,
2013-05-15 16:45:00,73.2,33.2,25.57,North,0,0.0,0.0,23,0.00,,---,0.00,VWS V13.01,2013-05-15 22:45:00,
2013-05-15 16:50:00,73.4,33.4,25.57,North,0,0.0,0.0,23,0.00,,---,0.00,VWS V13.01,2013-05-15 22:50:00,
2013-05-15 16:55:00,76.8,35.1,25.54,North,0,0.0,0.0,22,0.00,,---,0.00,VWS V13.01,2013-05-15 22:55:00,
2013-05-15 17:00:00,77.4,35.6,25.54,North,0,0.0,0.0,22,0.00,,---,0.00,VWS V13.01,2013-05-15 23:00:00,
2013-05-15 17:05:00,74.5,34.3,25.54,North,0,0.0,0.0,23,0.00,,---,0.00,VWS V13.01,2013-05-15 23:05:00,
2013-05-15 17:10:00,72.7,32.8,25.57,North,0,0.0,0.0,23,0.00,,---,0.00,VWS V13.01,2013-05-15 23:10:00,
2013-05-15 17:16:00,72.5,32.6,25.57,North,0,0.0,0.0,23,0.00,,---,0.00,VWS V13.01,2013-05-15 23:16:00,
2013-05-15 17:21:00,73.0,34.1,25.57,North,0,0.0,0.0,24,0.00,,---,0.00,VWS V13.01,2013-05-15 23:21:00,
2013-05-15 17:26:00,73.2,34.3,25.57,North,0,0.0,0.0,24,0.00,,---,0.00,VWS V13.01,2013-05-15 23:26:00,
2013-05-15 17:31:00,73.4,33.4,25.57,North,0,0.0,0.0,23,0.00,,---,0.00,VWS V13.01,2013-05-15 23:31:00,
2013-05-15 17:36:00,73.4,33.4,25.57,North,0,0.0,0.0,23,0.00,,---,0.00,VWS V13.01,2013-05-15 23:36:00,
2013-05-15 17:41:00,78.3,36.3,25.57,North,0,0.0,0.0,22,0.00,,---,0.00,VWS V13.01,2013-05-15 23:41:00,
2013-05-15 17:47:00,83.3,39.3,25.57,North,0,0.0,0.0,21,0.00,,---,0.00,VWS V13.01,2013-05-15 23:47:00,
2013-05-15 17:52:00,83.5,38.2,25.57,North,0,0.0,0.0,20,0.00,,---,0.00,VWS V13.01,2013-05-15 23:52:00,
2013-05-15 17:57:00,82.9,37.8,25.57,North,0,0.0,0.0,20,0.00,,---,0.00,VWS V13.01,2013-05-15 23:57:00,
2013-05-15 18:02:00,82.2,38.4,25.57,North,0,0.0,0.0,21,0.00,,---,0.00,VWS V13.01,2013-05-16 00:02:00,
2013-05-15 18:08:00,81.9,38.1,25.57,North,0,0.0,0.0,21,0.00,,---,0.00,VWS V13.01,2013-05-16 00:08:00,
2013-05-15 18:13:00,80.2,36.8,25.54,North,0,0.0,0.0,21,0.00,,---,0.00,VWS V13.01,2013-05-16 00:13:00,
2013-05-15 18:18:00,80.6,37.1,25.54,North,0,0.0,0.0,21,0.00,,---,0.00,VWS V13.01,2013-05-16 00:18:00,
2013-05-15 18:24:00,76.8,35.1,25.54,North,0,0.0,0.0,22,0.00,,---,0.00,VWS V13.01,2013-05-16 00:24:00,
2013-05-15 18:29:00,72.5,32.6,25.57,North,0,0.0,0.0,23,0.00,,---,0.00,VWS V13.01,2013-05-16 00:29:00,
2013-05-15 18:34:00,70.5,32.0,25.57,North,0,0.0,0.0,24,0.00,,---,0.00,VWS V13.01,2013-05-16 00:34:00,
2013-05-15 18:39:00,70.0,31.6,25.57,North,0,0.0,0.0,24,0.00,,---,0.00,VWS V13.01,2013-05-16 00:39:00,
2013-05-15 18:44:00,69.4,32.1,25.57,North,0,0.0,0.0,25,0.00,,---,0.00,VWS V13.01,2013-05-16 00:44:00,
2013-05-15 18:49:00,69.3,32.9,25.57,North,0,0.0,0.0,26,0.00,,---,0.00,VWS V13.01,2013-05-16 00:49:00,
2013-05-15 18:55:00,70.0,32.6,25.54,North,0,0.0,0.0,25,0.00,,---,0.00,VWS V13.01,2013-05-16 00:55:00,
2013-05-15 19:00:00,70.2,32.7,25.54,North,0,0.0,0.0,25,0.00,,---,0.08,VWS V13.01,2013-05-16 01:00:00,
2013-05-15 19:05:00,69.6,33.2,25.54,North,0,0.0,0.0,26,0.00,,---,0.00,VWS V13.01,2013-05-16 01:05:00,
2013-05-15 19:10:00,68.4,32.2,25.57,North,0,0.0,0.0,26,0.00,,---,0.00,VWS V13.01,2013-05-16 01:10:00,
2013-05-15 19:16:00,67.3,32.2,25.57,North,0,0.0,0.0,27,0.00,,---,0.00,VWS V13.01,2013-05-16 01:16:00,
2013-05-15 19:21:00,67.1,32.9,25.57,North,0,0.0,0.0,28,0.00,,---,0.00,VWS V13.01,2013-05-16 01:21:00,
2013-05-15 19:26:00,69.8,34.3,25.57,North,0,0.0,0.0,27,0.00,,---,0.00,VWS V13.01,2013-05-16 01:26:00,
2013-05-15 19:31:00,68.5,33.3,25.57,North,0,0.0,0.0,27,0.00,,---,0.00,VWS V13.01,2013-05-16 01:31:00,
2013-05-15 19:36:00,67.6,33.4,25.57,North,0,0.0,0.0,28,0.00,,---,0.00,VWS V13.01,2013-05-16 01:36:00,
2013-05-15 19:42:00,67.1,32.9,25.57,North,0,0.0,0.0,28,0.00,,---,0.00,VWS V13.01,2013-05-16 01:42:00,
2013-05-15 19:47:00,66.6,33.3,25.57,North,0,0.0,0.0,29,0.00,,---,0.00,VWS V13.01,2013-05-16 01:47:00,
2013-05-15 19:52:00,66.0,33.7,25.57,North,0,0.0,0.0,30,0.00,,---,0.00,VWS V13.01,2013-05-16 01:52:00,
2013-05-15 19:57:00,65.7,33.4,25.57,North,0,0.0,0.0,30,0.00,,---,0.00,VWS V13.01,2013-05-16 01:57:00,
2013-05-15 20:02:00,65.5,33.3,25.57,North,0,0.0,0.0,30,0.00,,---,0.00,VWS V13.01,2013-05-16 02:02:00,
2013-05-15 20:07:00,64.9,33.6,25.57,North,0,0.0,0.0,31,0.00,,---,0.00,VWS V13.01,2013-05-16 02:07:00,
2013-05-15 20:13:00,64.4,33.9,25.57,North,0,0.0,0.0,32,0.00,,---,0.00,VWS V13.01,2013-05-16 02:13:00,
2013-05-15 20:18:00,63.9,34.2,25.57,North,0,0.0,0.0,33,0.00,,---,0.00,VWS V13.01,2013-05-16 02:18:00,
2013-05-15 20:23:00,63.3,33.8,25.57,North,0,0.0,0.0,33,0.00,,---,0.00,VWS V13.01,2013-05-16 02:23:00,
2013-05-15 20:28:00,63.1,34.3,25.57,North,0,0.0,0.0,34,0.00,,---,0.00,VWS V13.01,2013-05-16 02:28:00,
2013-05-15 20:34:00,63.1,34.3,25.57,North,0,0.0,0.0,34,0.00,,---,0.00,VWS V13.01,2013-05-16 02:34:00,
2013-05-15 20:39:00,62.8,34.0,25.57,North,0,0.0,0.0,34,0.00,,---,0.00,VWS V13.01,2013-05-16 02:39:00,
2013-05-15 20:44:00,62.2,34.3,25.57,North,0,0.0,0.0,35,0.00,,---,0.00,VWS V13.01,2013-05-16 02:44:00,
2013-05-15 20:49:00,62.1,34.1,25.57,North,0,0.0,0.0,35,0.00,,---,0.00,VWS V13.01,2013-05-16 02:49:00,
2013-05-15 20:54:00,61.9,34.0,25.57,North,0,0.0,0.0,35,0.00,,---,0.00,VWS V13.01,2013-05-16 02:54:00,
2013-05-15 20:59:00,61.7,33.8,25.57,North,0,0.0,0.0,35,0.00,,---,0.00,VWS V13.01,2013-05-16 02:59:00,
2013-05-15 21:04:00,61.5,33.6,25.57,North,0,0.0,0.0,35,0.00,,---,0.00,VWS V13.01,2013-05-16 03:04:00,
2013-05-15 21:09:00,61.3,34.2,25.57,North,0,0.0,0.0,36,0.00,,---,0.00,VWS V13.01,2013-05-16 03:09:00,
2013-05-15 21:14:00,61.5,34.3,25.57,North,0,0.0,0.0,36,0.00,,---,0.00,VWS V13.01,2013-05-16 03:14:00,
2013-05-15 21:20:00,61.7,33.8,25.57,North,0,0.0,0.0,35,0.00,,---,0.00,VWS V13.01,2013-05-16 03:20:00,
2013-05-15 21:25:00,61.9,34.0,25.57,North,0,0.0,0.0,35,0.00,,---,0.00,VWS V13.01,2013-05-16 03:25:00,
2013-05-15 21:30:00,61.9,34.0,25.57,North,0,0.0,0.0,35,0.00,,---,0.00,VWS V13.01,2013-05-16 03:30:00,
2013-05-15 21:35:00,62.2,34.3,25.57,North,0,0.0,0.0,35,0.00,,---,0.00,VWS V13.01,2013-05-16 03:35:00,
2013-05-15 21:40:00,62.1,34.1,25.57,North,0,0.0,0.0,35,0.00,,---,0.00,VWS V13.01,2013-05-16 03:40:00,
2013-05-15 21:46:00,61.9,34.0,25.57,North,0,0.0,0.0,35,0.00,,---,0.00,VWS V13.01,2013-05-16 03:46:00,
2013-05-15 21:51:00,62.1,34.1,25.57,North,0,0.0,0.0,35,0.00,,---,0.00,VWS V13.01,2013-05-16 03:51:00,
2013-05-15 21:56:00,62.1,34.1,25.60,North,0,0.0,0.0,35,0.00,,---,0.00,VWS V13.01,2013-05-16 03:56:00,
2013-05-15 22:01:00,62.1,34.1,25.60,North,0,0.0,0.0,35,0.00,,---,0.00,VWS V13.01,2013-05-16 04:01:00,
2013-05-15 22:06:00,62.2,34.3,25.60,North,0,0.0,0.0,35,0.00,,---,0.00,VWS V13.01,2013-05-16 04:06:00,
2013-05-15 22:11:00,62.6,33.9,25.57,North,0,0.0,0.0,34,0.00,,---,0.00,VWS V13.01,2013-05-16 04:11:00,
2013-05-15 22:16:00,63.0,34.2,25.57,North,0,0.0,0.0,34,0.00,,---,0.00,VWS V13.01,2013-05-16 04:16:00,
2013-05-15 22:21:00,63.3,34.5,25.57,North,0,0.0,0.0,34,0.00,,---,0.00,VWS V13.01,2013-05-16 04:21:00,
2013-05-15 22:26:00,63.5,34.7,25.57,North,0,0.0,0.0,34,0.00,,---,0.00,VWS V13.01,2013-05-16 04:26:00,
2013-05-15 22:31:00,63.1,34.3,25.57,North,0,0.0,0.0,34,0.00,,---,0.00,VWS V13.01,2013-05-16 04:31:00,
2013-05-15 22:36:00,63.1,34.3,25.57,North,0,0.0,0.0,34,0.00,,---,0.00,VWS V13.01,2013-05-16 04:36:00,
2013-05-15 22:41:00,63.0,34.9,25.57,North,0,0.0,0.0,35,0.00,,---,0.00,VWS V13.01,2013-05-16 04:41:00,
2013-05-15 22:46:00,63.1,35.1,25.57,North,0,0.0,0.0,35,0.00,,---,0.00,VWS V13.01,2013-05-16 04:46:00,
2013-05-15 22:51:00,63.3,35.2,25.57,North,0,0.0,0.0,35,0.00,,---,0.00,VWS V13.01,2013-05-16 04:51:00,
2013-05-15 22:56:00,63.5,35.4,25.57,North,0,0.0,0.0,35,0.00,,---,0.00,VWS V13.01,2013-05-16 04:56:00,
2013-05-15 23:01:00,63.5,35.4,25.57,North,0,0.0,0.0,35,0.00,,---,0.00,VWS V13.01,2013-05-16 05:01:00,
2013-05-15 23:06:00,63.7,35.5,25.57,North,0,0.0,0.0,35,0.00,,---,0.00,VWS V13.01,2013-05-16 05:06:00,
2013-05-15 23:11:00,63.5,35.4,25.54,North,0,0.0,0.0,35,0.00,,---,0.00,VWS V13.01,2013-05-16 05:11:00,
2013-05-15 23:16:00,63.3,35.2,25.54,North,0,0.0,0.0,35,0.00,,---,0.00,VWS V13.01,2013-05-16 05:16:00,
2013-05-15 23:21:00,63.3,35.2,25.54,North,0,0.0,0.0,35,0.00,,---,0.00,VWS V13.01,2013-05-16 05:21:00,
2013-05-15 23:26:00,63.1,35.8,25.54,North,0,0.0,0.0,36,0.00,,---,0.00,VWS V13.01,2013-05-16 05:26:00,
2013-05-15 23:31:00,63.0,35.6,25.54,North,0,0.0,0.0,36,0.00,,---,0.00,VWS V13.01,2013-05-16 05:31:00,
2013-05-15 23:36:00,63.0,35.6,25.54,North,0,0.0,0.0,36,0.00,,---,0.00,VWS V13.01,2013-05-16 05:36:00,
2013-05-15 23:41:00,63.0,35.6,25.54,North,0,0.0,0.0,36,0.00,,---,0.00,VWS V13.01,2013-05-16 05:41:00,
2013-05-15 23:46:00,63.0,35.6,25.54,North,0,0.0,0.0,36,0.00,,---,0.00,VWS V13.01,2013-05-16 05:46:00,
2013-05-15 23:51:00,63.0,35.6,25.54,North,0,0.0,0.0,36,0.00,,---,0.00,VWS V13.01,2013-05-16 05:51:00,
2013-05-15 23:56:00,63.1,35.1,25.54,North,0,0.0,0.0,35,0.00,,---,0.00,VWS V13.01,2013-05-16 05:56:00,